Regional Weather Roundup
Issued by NWS

Home | Current Version | Previous Version | Graphics & Text | Print | Product List | Glossary On
Versions: 1 2 3 4 5 6 7 8 9 10 11 12 13 14 15 16 17 18 19 20 21 22 23 24 25 26 27 28 29 30 31 32 33 34 35 36 37 38 39 40 41 42 43 44 45 46 47 48 49 50
000
ASUS43 KOAX 021010
RWRNE

WEATHER ROUNDUP FOR NEBRASKA
NATIONAL WEATHER SERVICE OMAHA NE
500 AM CDT TUE SEP 02 2014

NOTES: SATELLITE DATA IS BEING USED TO AUGMENT CLOUD COVER ABOVE
       12000 FEET.
       "FAIR" INDICATES FEW OR NO CLOUDS BELOW 12,000 FEET WITH NO
       SIGNIFICANT WEATHER AND/OR OBSTRUCTIONS TO VISIBILITY.

  * THESE STATIONS DO NOT REPORT WEATHER SUCH AS RAIN...SNOW OR FOG.

NEZ001>004-019>022-054>056-021100-
NEBRASKA PANHANDLE

CITY           SKY/WX    TMP DP  RH WIND       PRES   REMARKS
SCOTTSBLUFF    CLEAR     45  44  97 CALM      30.07F
ALLIANCE       CLEAR     41  40  96 W3        30.06F
CHADRON        CLEAR     46  43  89 SW5       30.03S
KIMBALL        CLEAR     44  43  95 W9        30.11R
SIDNEY         CLEAR     43  40  89 W6        30.10R
$$

NEZ057>060-069>072-079>082-021100-
SOUTHWEST NEBRASKA

CITY           SKY/WX    TMP DP  RH WIND       PRES   REMARKS
NORTH PLATTE   PTCLDY    47  45  93 CALM      30.03F FOG
IMPERIAL       CLEAR     54  50  86 CALM      30.04F
LEXINGTON      CLEAR     51  50  96 SW3       30.01F
MCCOOK         CLEAR     56  54  93 SW3       30.02F
OGALLALA       CLEAR     45  44  97 CALM      30.05F
$$

NEZ005>010-023>029-035>040-094-021100-
NORTH CENTRAL NEBRASKA

CITY           SKY/WX    TMP DP  RH WIND       PRES   REMARKS
VALENTINE      CLEAR     49  47  93 SW3       30.01S
AINSWORTH      CLEAR     50  48  92 W8        30.01S
BROKEN BOW     CLEAR     53  51  93 NW8       30.00F
O`NEILL        CLEAR     54  53  98 W7        29.98R
ORD            CLEAR     50  49  96 CALM      29.98F
THEDFORD       CLEAR     48  47  98 W6        30.03F
$$

NEZ041-046>049-061>064-073>077-083>087-021100-
SOUTH CENTRAL NEBRASKA

CITY           SKY/WX    TMP DP  RH WIND       PRES   REMARKS
GRAND ISLAND   CLEAR     54  52  93 SW8       29.99F
AURORA         CLEAR     53  53 100 W5        29.99S
HASTINGS       CLEAR     55  51  86 NW3       29.99F
HEBRON         CLEAR     56  53  90 CALM      29.98F
HOLDREGE       CLEAR     54  53  95 CALM      30.00F
KEARNEY *      CLEAR     54  52  94 W5        30.01F
YORK           CLEAR     54 N/A N/A CALM      29.99S
$$

NEZ011>018-030>034-042>045-021100-
NORTHEAST NEBRASKA

CITY           SKY/WX    TMP DP  RH WIND       PRES   REMARKS
NORFOLK        CLEAR     56  54  93 W6        29.95S
ALBION         CLEAR     54  52  94 NW9       29.96F
BLAIR          CLEAR     58  56  93 W5        29.95R
FREMONT        CLEAR     57  56  95 CALM      29.96R
TEKAMAH        CLEAR     57  55  93 NW6       29.94F
WAYNE          CLEAR     56  54  94 W5        29.95S
$$

NEZ050>053-065>068-078-088>093-021100-
SOUTHEAST NEBRASKA

CITY           SKY/WX    TMP DP  RH WIND       PRES   REMARKS
LINCOLN        CLEAR     59  55  87 NW5       29.98R
OMAHA EPPLEY   CLEAR     59  56  89 N6        29.95R
BEATRICE       CLEAR     56  56  99 SW6       29.96S
FALLS CITY     CLEAR     61  60  97 SW6       29.92R
NEBRASKA CITY  CLEAR     59  59 100 W6        29.95R
PLATTSMOUTH    CLEAR     58  56  93 W3        29.95S
$$

NEZ044-045-051>053-067-021100-
OMAHA AREA

CITY           SKY/WX    TMP DP  RH WIND       PRES   REMARKS
OMAHA EPPLEY   CLEAR     59  56  89 N6        29.95R
BLAIR          CLEAR     58  56  93 W5        29.95R
FREMONT        CLEAR     57  56  95 CALM      29.96R
MILLARD        CLEAR     60  57  92 CALM      29.95R
OFFUTT AFB     CLEAR     60  59  99 W3        29.95R
PLATTSMOUTH    CLEAR     58  56  93 W3        29.95S
WAHOO          FAIR      59  56  88 W5        29.95S
$$


USA.gov is the U.S. government's official web portal to all federal, state and local government web resources and services.